Date String (YYYY-MM-DD hh:mm:ss) UTC,Instrument flags,absolute air pressure of the measurement (hPa),sample flow rate (lpm),inlet stack bypass flow (lpm),air temperature of the measurement (°C),ambient temperature measured by the external sensor (°C),aerosol sample conditioner tube jacket temperature (°C),OPC LED temperature (°C),internal box temperature (°C),relative humidity of the measurement (%),span deviation,mass concentration of particles derived from Lorenz-Mie calculation of OPC scattering (μg/m³),mass concentration of particles derived from Lorenz-Mie calculation of OPC scattering (μg/m³),mass concentration of particles derived from Lorenz-Mie calculation of OPC scattering (μg/m³)
DateTimeUTC,F1_M11,P_M11,Q1_M11,Q2_M11,T1_M11,T2_M11,T3_M11,T4_M11,T5_M11,U1_M11,ZSPAN_M11,X2_M11,X0_M11,X1_M11
2023-08-17 19:00:00,SystemResetWarning,0834.8,5.01,000.00,027.8,025.5,000.0,036.1,029.3,33.9,0001.9,0016.56,0030.49,0014.49
2023-08-17 19:01:00,SystemResetWarning,0834.6,5.00,000.00,027.8,025.9,000.0,036.1,029.4,33.9,0002.2,0016.52,0030.21,0014.50
2023-08-17 19:02:00,SystemResetWarning,0834.8,5.00,000.00,027.9,026.2,000.0,036.1,029.5,34.0,0002.1,0016.55,0030.10,0014.52
2023-08-17 19:03:00,SystemResetWarning,0834.8,4.99,000.00,027.9,025.7,000.0,036.1,029.4,33.6,0002.1,0016.64,0030.81,0014.53
2023-08-17 19:04:00,SystemResetWarning,0834.7,4.99,000.00,027.8,024.4,000.0,036.0,029.2,33.4,0002.0,0016.59,0030.88,0014.53
2023-08-17 19:05:00,SystemResetWarning,0834.7,5.01,000.00,027.8,024.0,000.0,035.9,029.0,33.7,0002.2,0016.56,0031.39,0014.54
2023-08-17 19:06:00,SystemResetWarning,0834.7,5.01,000.00,027.7,024.2,000.0,035.9,028.9,33.9,0002.0,0016.60,0031.41,0014.55
2023-08-17 19:07:00,SystemResetWarning,0834.7,5.00,000.00,027.6,024.6,000.0,036.0,029.0,34.5,0001.8,0016.56,0031.59,0014.54
2023-08-17 19:08:00,SystemResetWarning,0834.6,4.97,000.00,027.7,025.0,000.0,036.0,029.1,35.3,0001.8,0016.56,0032.52,0014.55
2023-08-17 19:09:00,SystemResetWarning,0834.8,5.04,000.00,027.8,025.5,000.0,036.0,029.4,34.9,0001.6,0016.49,0032.40,0014.57
2023-08-17 19:10:00,SystemResetWarning,0834.9,4.96,000.00,028.1,025.8,000.0,036.0,029.6,33.7,0001.6,0016.44,0031.85,0014.57
2023-08-17 19:11:00,SystemResetWarning,0835.0,5.03,000.00,028.2,026.0,000.0,036.1,029.6,33.2,0001.4,0016.39,0031.92,0014.54
2023-08-17 19:12:00,SystemResetWarning,0834.7,4.99,000.00,028.3,025.0,000.0,036.0,029.3,32.7,0001.2,0016.35,0032.08,0014.49
2023-08-17 19:13:00,SystemResetWarning,0834.5,4.99,000.00,028.2,023.9,000.0,036.0,029.1,32.7,0001.3,0016.28,0031.55,0014.49
2023-08-17 19:14:00,SystemResetWarning,0834.5,5.01,000.00,028.2,024.0,000.0,036.0,029.0,33.1,0001.5,0016.17,0030.84,0014.51
2023-08-17 19:15:00,SystemResetWarning,0834.5,5.00,000.00,028.1,024.3,000.0,036.0,029.0,33.2,0001.5,0016.15,0029.76,0014.51
2023-08-17 19:16:00,SystemResetWarning,0834.5,5.00,000.00,028.1,024.7,000.0,036.1,029.1,33.6,0001.5,0016.14,0029.68,0014.52
2023-08-17 19:17:00,SystemResetWarning,0834.5,5.01,000.00,028.1,025.2,000.0,036.1,029.3,33.4,0001.3,0016.11,0029.54,0014.49
2023-08-17 19:18:00,SystemResetWarning,0834.5,5.00,000.00,028.2,025.6,000.0,036.2,029.4,33.1,0001.3,0016.10,0029.07,0014.45
2023-08-17 19:19:00,SystemResetWarning,0834.5,5.00,000.00,028.2,026.0,000.0,036.2,029.5,33.0,0001.5,0016.05,0028.67,0014.41
2023-08-17 19:20:00,SystemResetWarning,0834.4,4.99,000.00,028.3,026.2,000.0,036.3,029.6,33.1,0001.5,0016.05,0028.65,0014.36
2023-08-17 19:21:00,SystemResetWarning,0834.4,4.98,000.00,028.3,025.2,000.0,036.2,029.4,33.3,0001.5,0016.00,0028.29,0014.32
2023-08-17 19:22:00,SystemResetWarning,0834.4,5.02,000.00,028.2,024.1,000.0,036.1,029.1,34.0,0001.8,0015.92,0027.75,0014.29
2023-08-17 19:23:00,SystemResetWarning,0834.5,5.00,000.00,028.1,024.0,000.0,036.1,029.1,34.5,0001.8,0015.88,0027.65,0014.28
2023-08-17 19:24:00,SystemResetWarning,0834.4,5.00,000.00,028.1,024.4,000.0,036.2,029.1,33.8,0001.8,0015.86,0027.96,0014.26
2023-08-17 19:25:00,SystemResetWarning,0834.4,5.00,000.00,028.0,024.8,000.0,036.2,029.2,33.7,0001.8,0015.85,0027.12,0014.19
2023-08-17 19:26:00,SystemResetWarning,0834.4,4.99,000.00,028.0,025.2,000.0,036.2,029.3,33.7,0001.6,0015.84,0027.47,0014.17
2023-08-17 19:27:00,SystemResetWarning,0834.3,5.00,000.00,028.1,025.6,000.0,036.2,029.4,33.6,0001.4,0015.82,0028.75,0014.13
2023-08-17 19:28:00,SystemResetWarning,0834.4,5.00,000.00,028.1,026.0,000.0,036.3,029.5,34.2,0001.5,0015.78,0028.94,0014.10
2023-08-17 19:29:00,SystemResetWarning,0834.4,5.00,000.00,028.1,025.8,000.0,036.2,029.5,34.3,0001.5,0015.74,0029.13,0014.07
2023-08-17 19:30:00,SystemResetWarning,0834.3,4.99,000.00,028.1,024.4,000.0,036.2,029.2,33.7,0001.3,0015.72,0029.37,0014.06
2023-08-17 19:31:00,SystemResetWarning,0834.3,5.01,000.00,028.0,023.8,000.0,036.1,029.1,33.8,0001.1,0015.76,0029.44,0014.07
2023-08-17 19:32:00,SystemResetWarning,0834.4,5.02,000.00,027.9,024.1,000.0,036.1,029.1,33.9,0000.9,0015.77,0029.70,0014.08
2023-08-17 19:33:00,SystemResetWarning,0834.5,4.99,000.00,027.9,024.5,000.0,036.1,029.0,34.2,0000.6,0015.85,0029.85,0014.10
2023-08-17 19:34:00,SystemResetWarning,0834.6,5.00,000.00,027.9,024.9,000.0,036.1,029.2,34.5,0000.4,0015.86,0029.57,0014.10
2023-08-17 19:35:00,SystemResetWarning,0834.4,5.00,000.00,027.9,025.3,000.0,036.1,029.3,34.6,0000.4,0015.85,0029.70,0014.09
2023-08-17 19:36:00,SystemResetWarning,0834.5,5.01,000.00,027.9,025.7,000.0,036.2,029.4,34.0,0000.3,0015.84,0030.58,0014.11
2023-08-17 19:37:00,SystemResetWarning,0834.3,5.00,000.00,028.0,026.1,000.0,036.2,029.5,34.2,0000.5,0015.80,0031.87,0014.10
2023-08-17 19:38:00,SystemResetWarning,0834.4,4.99,000.00,028.1,026.3,000.0,036.2,029.6,34.4,0000.5,0015.77,0031.69,0014.08
2023-08-17 19:39:00,SystemResetWarning,0834.4,4.99,000.00,028.1,025.4,000.0,036.2,029.4,33.6,0000.5,0015.76,0031.40,0014.08
2023-08-17 19:40:00,SystemResetWarning,0834.2,5.00,000.00,028.0,024.2,000.0,036.1,029.2,33.5,0000.8,0015.73,0031.72,0014.09
2023-08-17 19:41:00,SystemResetWarning,0834.2,5.00,000.00,027.9,024.0,000.0,036.0,029.1,34.0,0000.7,0015.69,0031.61,0014.07
2023-08-17 19:42:00,SystemResetWarning,0834.2,5.01,000.00,027.9,024.3,000.0,036.0,029.0,34.0,0000.8,0015.61,0031.74,0014.03
2023-08-17 19:43:00,SystemResetWarning,0834.2,5.00,000.00,027.8,024.7,000.0,036.1,029.1,33.7,0001.1,0015.61,0031.12,0014.01
2023-08-17 19:44:00,SystemResetWarning,0834.2,5.00,000.00,027.8,025.2,000.0,036.1,029.2,33.7,0001.4,0015.58,0031.23,0013.98
2023-08-17 19:45:00,SystemResetWarning,0834.2,5.00,000.00,027.9,025.6,000.0,036.1,029.4,33.9,0001.3,0015.56,0031.75,0013.95
2023-08-17 19:46:00,SystemResetWarning,0834.2,5.01,000.00,027.9,026.0,000.0,036.2,029.5,33.5,0001.4,0015.50,0031.18,0013.89
2023-08-17 19:47:00,SystemResetWarning,0834.2,4.99,000.00,028.0,026.2,000.0,036.2,029.6,33.4,0001.4,0015.47,0030.94,0013.82
2023-08-17 19:48:00,SystemResetWarning,0834.2,4.98,000.00,028.0,025.5,000.0,036.1,029.4,33.7,0001.3,0015.43,0030.40,0013.78
2023-08-17 19:49:00,SystemResetWarning,0834.1,5.01,000.00,027.9,024.2,000.0,036.0,029.2,34.1,0001.4,0015.35,0030.54,0013.76
2023-08-17 19:50:00,SystemResetWarning,0834.1,5.00,000.00,027.9,024.0,000.0,036.0,029.1,33.9,0001.5,0015.29,0030.28,0013.72
2023-08-17 19:51:00,SystemResetWarning,0834.1,5.01,000.00,027.8,024.2,000.0,036.0,028.9,34.4,0001.3,0015.27,0030.08,0013.68
2023-08-17 19:52:00,SystemResetWarning,0834.1,5.00,000.00,027.7,024.7,000.0,036.0,029.0,34.5,0001.2,0015.31,0029.69,0013.69
2023-08-17 19:53:00,SystemResetWarning,0834.1,4.99,000.00,027.8,025.1,000.0,036.0,029.2,34.0,0001.4,0015.35,0029.31,0013.71
2023-08-17 19:54:00,SystemResetWarning,0834.1,5.00,000.00,027.8,025.5,000.0,036.1,029.3,34.0,0001.4,0015.36,0030.11,0013.71
2023-08-17 19:55:00,SystemResetWarning,0834.1,5.01,000.00,027.8,025.9,000.0,036.1,029.4,34.2,0001.8,0015.39,0030.19,0013.72
2023-08-17 19:56:00,SystemResetWarning,0834.1,5.00,000.00,027.9,026.2,000.0,036.1,029.6,34.0,0001.9,0015.38,0029.90,0013.72
2023-08-17 19:57:00,SystemResetWarning,0834.1,4.98,000.00,027.9,025.6,000.0,036.1,029.5,33.9,0001.9,0015.43,0029.95,0013.77
2023-08-17 19:58:00,SystemResetWarning,0834.0,5.00,000.00,027.8,024.2,000.0,036.0,029.2,34.0,0001.7,0015.53,0029.86,0013.82
2023-08-17 19:59:00,SystemResetWarning,0834.0,5.01,000.00,027.8,024.0,000.0,035.9,029.1,34.1,0001.5,0015.66,0030.12,0013.87
